Change the Weather History Date:

Sunday, March 2, 2014

  Actual Average Record
Temperature  
Mean Temperature -10 °F -  
Max Temperature 0 °F 19 °F 39 °F (2001)
Min Temperature -20 °F 3 °F -23 °F (2003)
Degree Days  
Heating Degree Days 75    
Moisture  
Dew Point -20 °F    
Average Humidity 65    
Maximum Humidity 77    
Minimum Humidity 59    
Precipitation  
Precipitation 0.00 in - - ()
Snow  
Snow 0.00 in - - ()
Snow Depth 1.00 in    
Sea Level Pressure  
Sea Level Pressure 30.66 in    
Wind  
Wind Speed 12 mph (WNW)    
Max Wind Speed 17 mph    
Max Gust Speed -    
Visibility 10 miles    
Events      
Averages and records for this station are not official NWS values.
T = Trace of Precipitation, MM = Missing Value Source: NWS Daily Summary

Daily Weather History Graph

Daily Weather History Graph

Search for Another Location

Airport or City:

Trip Planner

Search our weather history database for the weather conditions in past years. The results will help you decide how hot, cold, wet, or windy it might be!

Date:

Astronomy

Mar. 02, 2014 Rise Set
Actual Time 7:24 AM CST 6:31 PM CST
Civil Twilight 6:53 AM CST 7:02 PM CST
Nautical Twilight 6:17 AM CST 7:38 PM CST
Astronomical Twilight 5:40 AM CST 8:15 PM CST
Moon 7:47 AM CST (3/2) 8:42 PM CST (3/2)
Length of Visible Light 12h 09m
Length of Day
11h 06m
Waxing Crescent, 3% of the Moon is Illuminated
Mar 2
Waxing Crescent
Mar 8
First Quarter
Mar 16
Full
Mar 23
Last Quarter
Mar 30
New

Hourly Weather History & Observations

Time (CST) Temp. Windchill Dew Point Humidity Pressure Visibility Wind Dir Wind Speed Gust Speed Precip Events Conditions
12:58 AM -20.4 °F -44.6 °F -28.1 °F 67% 30.71 in 10.0 mi WNW 13.8 mph - N/A   Clear
1:58 AM -20.2 °F -44.4 °F -28.3 °F 66% 30.71 in 10.0 mi WNW 13.8 mph - N/A   Clear
2:58 AM -19.1 °F -43.0 °F -28.1 °F 63% 30.70 in 10.0 mi WNW 13.8 mph - N/A   Clear
3:58 AM -19.1 °F -45.4 °F -28.1 °F 63% 30.69 in 10.0 mi WNW 17.3 mph - N/A   Clear
4:58 AM -19.5 °F -42.5 °F -28.5 °F 63% 30.70 in 10.0 mi WNW 12.7 mph - N/A   Clear
5:58 AM -19.7 °F -45.4 °F -28.3 °F 65% 30.69 in 10.0 mi WNW 16.1 mph - N/A   Clear
6:58 AM -19.5 °F -42.5 °F -28.5 °F 63% 30.69 in 10.0 mi West 12.7 mph - N/A   Clear
7:58 AM -19.8 °F -43.0 °F -28.8 °F 63% 30.70 in 10.0 mi WNW 12.7 mph - N/A   Clear
8:58 AM -17.7 °F -40.2 °F -27.4 °F 61% 30.71 in 10.0 mi WNW 12.7 mph - N/A   Clear
9:58 AM -14.1 °F -37.4 °F -24.3 °F 60% 30.71 in 10.0 mi WNW 15.0 mph - N/A   Clear
10:58 AM -10.7 °F -33.0 °F -20.9 °F 61% 30.71 in 10.0 mi WNW 15.0 mph - N/A   Clear
11:58 AM -7.8 °F -29.3 °F -18.6 °F 59% 30.70 in 10.0 mi NW 15.0 mph - N/A   Clear
12:58 PM -4.9 °F -24.1 °F -15.9 °F 59% 30.69 in 10.0 mi WNW 12.7 mph - N/A   Clear
1:58 PM -2.6 °F -22.6 °F -13.9 °F 59% 30.66 in 10.0 mi West 15.0 mph - N/A   Clear
2:58 PM -1.3 °F -17.8 °F -12.5 °F 59% 30.64 in 10.0 mi WNW 10.4 mph - N/A   Clear
3:58 PM -0.0 °F -16.3 °F -10.7 °F 61% 30.64 in 10.0 mi NW 10.4 mph - N/A   Clear
4:58 PM -0.2 °F -14.4 °F -10.7 °F 61% 30.62 in 10.0 mi WNW 8.1 mph - N/A   Clear
5:58 PM -0.9 °F -17.4 °F -10.8 °F 63% 30.63 in 10.0 mi NW 10.4 mph - N/A   Clear
6:58 PM -4.0 °F -16.3 °F -11.4 °F 71% 30.63 in 10.0 mi NW 5.8 mph - N/A   Clear
7:58 PM -5.8 °F -16.7 °F -13.0 °F 71% 30.63 in 10.0 mi WNW 4.6 mph - N/A   Clear
8:58 PM -6.9 °F -15.7 °F -14.1 °F 71% 30.62 in 10.0 mi West 3.5 mph - N/A   Clear
9:58 PM -8.3 °F - -15.0 °F 73% 30.59 in 10.0 mi West 2.3 mph - N/A   Clear
10:58 PM -8.9 °F - -15.0 °F 75% 30.58 in 10.0 mi West 2.3 mph - N/A   Clear
11:58 PM -8.9 °F - -14.4 °F 77% 30.56 in 10.0 mi Calm Calm - N/A   Clear